[[{"header":{"parameterUnit":"m.s-1","parameterCategory":2,"la1":30.2991,"la2":30.254,"lo1":-89.0895,"lo2":-89.0444,"dy":0.0017,"dx":0.0017,"nx":28,"ny":28,"refTime":"2024-02-08T09:00:00:Z","depth":"0","parameterNumber":2,"parameterNumberName":"U-component_of_CURRENTS"},"data":[0,0,0,0,0,0,0,0,0,0,0,0,0,0,0,0,0,0,0,0,0,0,0,0,0,0,0,0,0,0,0,0,0,0,0,0,0,0,0,0,0,0,0,0,0,0,0,0,0,0,0,0,0,0,0,0,0,0,-0.2964,-0.2965,0,-0.2997,-0.2997,-0.2997,-0.2973,-0.2973,-0.2972,-0.2971,-0.2944,-0.2944,-0.2944,0,0,0,0,0,0,0,0,0,0,0,0,0,-0.2867,-0.2869,-0.2964,-0.2965,-0.2965,-0.2997,-0.2997,-0.2997,-0.2973,-0.2973,-0.2972,-0.2971,-0.2944,-0.2944,-0.2944,0,0,0,0,0,0,0,0,0,0,0,0,0,-0.2902,-0.287,-0.2964,-0.296,-0.296,-0.2997,-0.2997,-0.2997,-0.2974,-0.2973,-0.2971,-0.297,-0.2944,-0.2944,-0.2944,-0.2964,0,0,-0.2943,-0.2943,0,0,0,0,0,0,0,0,-0.29,-0.2905,-0.296,-0.2961,-0.2961,-0.2983,-0.2953,-0.2984,-0.2974,-0.2965,-0.2971,-0.297,-0.2954,-0.2953,-0.2958,-0.2963,-0.2962,-0.2943,-0.2943,-0.2943,-0.2943,0,0,0,0,0,0,0,-0.2898,-0.2904,-0.2973,-0.2961,-0.2962,-0.2952,-0.2956,-0.2959,-0.2961,-0.2965,-0.2965,-0.2975,-0.2954,-0.2958,-0.2957,-0.2961,-0.2943,-0.2943,-0.2943,-0.2943,-0.3003,-0.3005,0,0,0,0,0,0,-0.2904,-0.2902,-0.2972,-0.2975,-0.2931,-0.2955,-0.2959,-0.2974,-0.2963,-0.2961,-0.2975,-0.2973,-0.2959,-0.2957,-0.2956,-0.3003,-0.2943,-0.2943,-0.2943,-0.3002,-0.3004,-0.3006,0,0,0,0,0,0,-0.2901,-0.291,-0.2971,-0.2941,-0.2949,-0.2959,-0.2975,-0.2975,-0.2979,-0.2971,-0.2968,-0.2979,-0.2958,-0.2956,-0.2966,-0.3001,-0.2943,-0.2943,-0.3,-0.3002,-0.3005,-0.3083,0,0,0,0,0,0,-0.2899,-0.2909,-0.2915,-0.2942,-0.2951,-0.3002,-0.2977,-0.2977,-0.2989,-0.2986,-0.2974,-0.297,-0.2957,-0.2967,-0.2966,-0.3,-0.2943,-0.2998,-0.3001,-0.3004,-0.3079,-0.3088,-0.3097,0,0,0,0,0,-0.2895,-0.291,-0.2915,-0.2924,-0.2962,-0.3004,-0.3008,-0.3007,-0.299,-0.3003,-0.2993,-0.2971,-0.2986,-0.2968,-0.2967,-0.3001,-0.2996,-0.3,-0.3004,-0.3075,-0.3086,-0.3096,0,0,0,0,0,0,-0.2866,-0.2911,-0.2916,-0.2942,-0.2976,-0.3001,-0.3009,-0.3013,-0.3016,-0.3006,-0.2989,-0.2986,-0.301,-0.2996,-0.2976,-0.3029,-0.2989,-0.2993,-0.3044,-0.3055,-0.3063,-0.3063,-0.2943,0,0,0,0,0,-0.2867,-0.2889,-0.2934,-0.2953,-0.297,-0.299,-0.3003,-0.3012,-0.3023,-0.3023,-0.3017,-0.3014,-0.3028,-0.3031,-0.3035,-0.3061,-0.3036,-0.3084,-0.3093,-0.3101,-0.3101,-0.311,-0.3119,-0.3018,-0.3018,-0.3018,0,0,-0.2857,-0.2887,-0.2896,-0.2948,-0.2967,-0.3012,-0.2994,-0.3023,-0.3059,-0.302,-0.3048,-0.3043,-0.3041,-0.3074,-0.3084,-0.3064,-0.3114,-0.3105,-0.3112,-0.3108,-0.3115,-0.3124,-0.3133,-0.302,-0.302,-0.302,0,0,-0.2864,-0.2882,-0.2909,-0.2948,-0.2994,-0.3018,-0.3031,-0.3066,-0.3076,-0.3111,-0.3096,-0.3112,-0.3123,-0.3138,-0.3145,-0.3207,-0.3161,-0.3206,-0.3252,-0.3262,-0.327,-0.3276,-0.3244,-0.3248,-0.3211,-0.3212,-0.3212,0,-0.285,-0.2897,-0.2922,-0.297,-0.3005,-0.3026,-0.3074,-0.31,-0.3133,-0.3151,-0.3127,-0.3166,-0.316,-0.3215,-0.3232,-0.3229,-0.3204,-0.3212,-0.3273,-0.3279,-0.3285,-0.325,-0.3253,-0.3216,-0.3215,-0.3215,-0.3215,0,-0.2888,-0.293,-0.295,-0.3021,-0.3064,-0.3105,-0.3159,-0.3191,-0.3201,-0.3225,-0.327,-0.3267,-0.3285,-0.3298,-0.3279,-0.333,-0.3289,-0.3282,-0.3243,-0.3299,-0.3259,-0.3261,-0.3222,-0.322,-0.3219,-0.3218,0,0,-0.2838,-0.2955,-0.2959,-0.3007,-0.3095,-0.3133,-0.3205,-0.3274,-0.3311,-0.3339,-0.3382,-0.3414,-0.3397,-0.3404,-0.3393,-0.3403,-0.3416,-0.3356,-0.3354,-0.3319,-0.3401,-0.3313,-0.3305,-0.3415,-0.3416,-0.3417,-0.3351,0,-0.2856,-0.2951,-0.301,-0.3097,-0.315,-0.3212,-0.3279,-0.3344,-0.3379,-0.3423,-0.3442,-0.3468,-0.3445,-0.3443,-0.3458,-0.3427,-0.3425,-0.3432,-0.3355,-0.3352,-0.3264,-0.3306,-0.3172,-0.3097,-0.3352,-0.3352,-0.3352,0,-0.2866,-0.2934,-0.3024,-0.3145,-0.3173,-0.3224,-0.3325,-0.3384,-0.3462,-0.349,-0.3529,-0.3531,-0.3559,-0.3519,-0.3507,-0.3508,-0.3456,-0.3429,-0.3426,-0.3316,-0.3268,-0.3086,-0.309,-0.3056,-0.3354,-0.3354,-0.3354,0,-0.2808,-0.2937,-0.3007,-0.305,-0.319,-0.3231,-0.3289,-0.3386,-0.3437,-0.3509,-0.3542,-0.3583,-0.3581,-0.3559,-0.3498,-0.3499,-0.3461,-0.3457,-0.3332,-0.3323,-0.318,-0.3157,-0.3137,-0.3442,-0.3442,-0.3442,-0.3442,0,-0.28,-0.285,-0.2978,-0.3016,-0.3088,-0.3191,-0.3263,-0.333,-0.3424,-0.3474,-0.3544,-0.357,-0.3589,-0.3571,-0.3515,-0.3417,-0.3472,-0.3338,-0.331,-0.3201,-0.3182,-0.3121,-0.3145,-0.3439,-0.344,-0.3441,-0.3441,0,-0.2719,-0.2813,-0.2888,-0.3024,-0.306,-0.3095,-0.3223,-0.3271,-0.3375,-0.3437,-0.3456,-0.355,-0.3528,-0.3525,-0.3476,-0.3418,-0.328,-0.3292,-0.3143,-0.3099,-0.2952,-0.2985,-0.2921,-0.2838,-0.315,-0.3148,-0.3146,0,-0.2686,-0.2718,-0.2849,-0.2882,-0.2933,-0.3012,-0.3064,-0.3205,-0.326,-0.3404,-0.3414,-0.3452,-0.3445,-0.3364,-0.3272,-0.3168,-0.3164,-0.2989,-0.2981,-0.2925,-0.2943,-0.2962,-0.2899,-0.2812,-0.2807,-0.2804,-0.2801,0,-0.2604,-0.2644,-0.2705,-0.2767,-0.282,-0.2896,-0.2977,-0.3027,-0.3182,-0.3242,-0.3295,-0.3303,-0.3268,-0.3119,-0.3016,-0.2935,-0.2914,-0.2907,-0.2899,-0.2718,-0.2689,-0.26,-0.2859,-0.2767,-0.277,-0.2773,-0.2775,-0.2776,-0.2509,-0.252,-0.2586,-0.2628,-0.269,-0.2732,-0.2732,-0.2838,-0.2891,-0.2937,-0.3064,-0.3032,-0.2982,-0.2818,-0.2743,-0.2579,-0.2656,-0.2499,-0.2552,-0.2583,-0.2486,-0.2654,-0.2509,-0.2511,-0.2512,-0.2514,-0.2515,0,-0.238,-0.2407,-0.2443,-0.2487,-0.2479,-0.2564,-0.2634,-0.2601,-0.2586,-0.2675,-0.2685,-0.2669,-0.2528,-0.2507,-0.2371,-0.2261,-0.221,-0.2211,-0.2217,-0.2175,-0.2346,-0.2312,-0.2058,-0.2058,-0.2058,-0.2058,-0.2058,-0.2058,-0.2312,-0.229,-0.231,-0.2248,-0.2271,-0.2199,-0.2194,-0.2165,-0.2191,-0.2153,-0.2182,-0.2277,-0.2283,-0.2398,-0.2242,-0.2126,-0.2077,-0.2,-0.2043,-0.2186,-0.2218,-0.2248,-0.2221,-0.1952,-0.1952,-0.1773,-0.1772,-0.1771]},{"header":{"parameterUnit":"m.s-1","parameterCategory":2,"la1":30.2991,"la2":30.254,"lo1":-89.0895,"lo2":-89.0444,"dy":0.0017,"dx":0.0017,"nx":28,"ny":28,"refTime":"2024-02-08T09:00:00:Z","depth":"0","parameterNumber":3,"parameterNumberName":"V-component_of_CURRENTS"},"data":[0,0,0,0,0,0,0,0,0,0,0,0,0,0,0,0,0,0,0,0,0,0,0,0,0,0,0,0,0,0,0,0,0,0,0,0,0,0,0,0,0,0,0,0,0,0,0,0,0,0,0,0,0,0,0,0,0,0,-0.0179,-0.0178,0,-0.009,-0.0089,-0.0088,-0.0029,-0.0029,-0.0029,-0.0028,0.0114,0.0117,0.0121,0,0,0,0,0,0,0,0,0,0,0,0,0,-0.0237,-0.0236,-0.0179,-0.0178,-0.0177,-0.0091,-0.0089,-0.0088,-0.0029,-0.0029,-0.0029,-0.0028,0.0113,0.0117,0.0121,0,0,0,0,0,0,0,0,0,0,0,0,0,-0.0185,-0.0236,-0.0179,-0.0138,-0.0133,-0.0091,-0.0089,-0.0088,-0.0029,-0.0029,-0.0029,-0.0028,0.0111,0.0116,0.0121,0.0145,0,0,0.0137,0.014,0,0,0,0,0,0,0,0,-0.0188,-0.0183,-0.0145,-0.0141,-0.0135,-0.0071,-0.0058,-0.0008,-0.003,-0.0068,-0.0028,-0.0028,0.0056,0.0066,0.0082,0.0151,0.0157,0.0138,0.0141,0.0143,0.0145,0,0,0,0,0,0,0,-0.0192,-0.0186,-0.0143,-0.0144,-0.0138,-0.0103,-0.0096,-0.0048,-0.0008,-0.0064,-0.006,-0.0052,0.0059,0.0077,0.0086,0.0159,0.0138,0.0142,0.0146,0.0148,0.027,0.0271,0,0,0,0,0,0,-0.0209,-0.019,-0.0145,-0.014,-0.0163,-0.0103,-0.0095,-0.0092,-0.0009,0.0003,-0.0053,-0.005,0.0067,0.008,0.0091,0.0132,0.0143,0.0148,0.0151,0.027,0.027,0.0271,0,0,0,0,0,0,-0.0211,-0.0206,-0.0149,-0.0163,-0.0154,-0.0103,-0.01,-0.009,-0.0072,-0.0001,0.0012,-0.0045,0.0068,0.0084,0.0132,0.0137,0.0151,0.0155,0.027,0.027,0.0271,0.0208,0,0,0,0,0,0,-0.0213,-0.0207,-0.0212,-0.0165,-0.0154,-0.0134,-0.01,-0.0089,-0.0069,-0.0064,0.001,0.0024,0.007,0.0124,0.0137,0.0145,0.0159,0.027,0.027,0.027,0.021,0.0206,0.0202,0,0,0,0,0,-0.0215,-0.0227,-0.0213,-0.0208,-0.0162,-0.0134,-0.0126,-0.0086,-0.0069,-0.0067,-0.0014,0.0021,0.0135,0.0128,0.0144,0.0153,0.027,0.027,0.027,0.0211,0.0207,0.0203,0,0,0,0,0,0,-0.0254,-0.0221,-0.0205,-0.0206,-0.0176,-0.0125,-0.0121,-0.0093,-0.005,-0.0045,0.0024,0.0041,0.0084,0.0126,0.0117,0.0189,0.0208,0.0211,0.0158,0.0154,0.015,0.0132,0.0164,0,0,0,0,0,-0.0266,-0.0268,-0.0227,-0.0228,-0.0218,-0.0171,-0.0155,-0.0129,-0.0085,-0.0066,-0.0013,0.0045,0.0097,0.013,0.0176,0.0218,0.0269,0.0234,0.0231,0.0227,0.0223,0.031,0.0314,0.0271,0.0271,0.0271,0,0,-0.0281,-0.0264,-0.0264,-0.0237,-0.0211,-0.0206,-0.016,-0.0144,-0.0131,-0.0057,-0.0024,0.003,0.0103,0.0147,0.0171,0.0185,0.0264,0.0228,0.0224,0.0222,0.0311,0.0315,0.0319,0.0272,0.0272,0.0272,0,0,-0.0321,-0.0298,-0.0317,-0.0297,-0.0268,-0.0236,-0.0236,-0.0188,-0.0159,-0.0122,-0.0063,-0.0005,0.0067,0.0128,0.0167,0.0173,0.0236,0.0185,0.0161,0.0246,0.025,0.0255,0.0312,0.0322,0.019,0.019,0.019,0,-0.0342,-0.0358,-0.0317,-0.0327,-0.0318,-0.0256,-0.027,-0.0229,-0.017,-0.0141,-0.0124,0.0002,0.0061,0.0136,0.0136,0.0166,0.0213,0.017,0.0241,0.0247,0.0252,0.0311,0.0323,0.0187,0.0187,0.0188,0.0188,0,-0.0392,-0.0405,-0.0414,-0.0407,-0.0386,-0.039,-0.0331,-0.0304,-0.0261,-0.0209,-0.0135,-0.0047,0.003,0.0061,0.0101,0.0172,0.019,0.022,0.0249,0.0253,0.0314,0.0328,0.0183,0.0184,0.0185,0.0185,0,0,-0.044,-0.0452,-0.0454,-0.0475,-0.0431,-0.0427,-0.0394,-0.0347,-0.0323,-0.0245,-0.0198,-0.0096,-0.0038,0.0009,0.0081,0.0157,0.0235,0.0197,0.0203,0.0247,0.0404,0.0435,0.0453,0.0279,0.0281,0.0283,0.0427,0,-0.0496,-0.0553,-0.0526,-0.0566,-0.059,-0.0522,-0.0494,-0.0434,-0.0367,-0.0303,-0.0183,-0.0116,-0.0058,-0.0019,0.0068,0.0197,0.0269,0.0192,0.04,0.0405,0.0429,0.047,0.049,0.0621,0.044,0.0443,0.0444,0,-0.0552,-0.0586,-0.0643,-0.0658,-0.0658,-0.0658,-0.0606,-0.0574,-0.0452,-0.0396,-0.0292,-0.0196,-0.0064,-0.0022,0.0202,0.0149,0.0261,0.036,0.0369,0.043,0.0463,0.0593,0.0654,0.0829,0.0466,0.0464,0.0463,0,-0.0622,-0.0666,-0.0721,-0.0726,-0.0721,-0.0721,-0.0702,-0.0603,-0.0574,-0.0449,-0.0406,-0.0235,-0.0144,0.0027,0.0234,0.0221,0.0478,0.0492,0.0624,0.0627,0.0701,0.0706,0.0953,0.064,0.064,0.0639,0.0639,0,-0.0694,-0.0739,-0.0765,-0.0799,-0.0849,-0.0801,-0.0808,-0.0758,-0.0666,-0.0622,-0.0464,-0.0388,-0.0127,0.0056,0.0228,0.0476,0.0482,0.063,0.0677,0.0677,0.0679,0.088,0.0948,0.0645,0.0644,0.0642,0.0642,0,-0.0764,-0.078,-0.0856,-0.0882,-0.0891,-0.0923,-0.0908,-0.0901,-0.0801,-0.0735,-0.0699,-0.0485,-0.0239,0.0022,0.0321,0.0471,0.0815,0.0777,0.0746,0.0787,0.1056,0.1117,0.1399,0.1509,0.0946,0.0947,0.0949,0,-0.0806,-0.0854,-0.0932,-0.098,-0.1001,-0.1034,-0.1046,-0.0979,-0.096,-0.0793,-0.0766,-0.0518,-0.0324,0.0123,0.0441,0.0771,0.0911,0.0963,0.0947,0.1091,0.1196,0.1235,0.131,0.1018,0.102,0.1022,0.1023,0,-0.0888,-0.0914,-0.098,-0.1084,-0.1135,-0.1183,-0.1193,-0.1199,-0.1088,-0.1005,-0.0849,-0.0678,-0.0226,0.0181,0.0616,0.0801,0.1096,0.1004,0.1187,0.1304,0.1334,0.1454,0.0881,0.1037,0.1036,0.1035,0.1034,0.1034,-0.0939,-0.101,-0.1095,-0.1188,-0.1254,-0.1312,-0.1341,-0.1314,-0.1271,-0.1113,-0.0934,-0.0644,-0.0033,0.059,0.0823,0.1281,0.1238,0.1398,0.1468,0.1501,0.1596,0.1034,0.122,0.122,0.122,0.1219,0.1219,0,-0.1002,-0.1082,-0.1187,-0.1301,-0.1388,-0.1389,-0.142,-0.1408,-0.1352,-0.1153,-0.0957,-0.0311,0.0281,0.0835,0.1508,0.1745,0.1801,0.1847,0.1924,0.1985,0.153,0.1521,0.174,0.174,0.1739,0.1739,0.1739,0.1739,-0.1039,-0.1158,-0.1219,-0.1384,-0.1456,-0.1529,-0.1542,-0.1489,-0.1357,-0.103,-0.0675,-0.0369,0.0435,0.1554,0.217,0.2207,0.2424,0.2374,0.251,0.2197,0.2161,0.2126,0.2137,0.2481,0.2482,0.2942,0.2946,0.295]}],[{"header":{"parameterUnit":"m.s-1","parameterCategory":2,"la1":30.2991,"la2":30.254,"lo1":-89.0895,"lo2":-89.0444,"dy":0.0017,"dx":0.0017,"nx":28,"ny":28,"refTime":"2024-02-08T09:00:00:Z","depth":"2","parameterNumber":2,"parameterNumberName":"U-component_of_CURRENTS"},"data":[0,0,0,0,0,0,0,0,0,0,0,0,0,0,0,0,0,0,0,0,0,0,0,0,0,0,0,0,0,0,0,0,0,0,0,0,0,0,0,0,0,0,0,0,0,0,0,0,0,0,0,0,0,0,0,0,0,0,-0.2561,-0.2561,0,-0.2593,-0.2593,-0.2593,-0.258,-0.258,-0.258,-0.2579,-0.2565,-0.2565,-0.2565,0,0,0,0,0,0,0,0,0,0,0,0,0,-0.2479,-0.2481,-0.2561,-0.2561,-0.2562,-0.2593,-0.2593,-0.2593,-0.2581,-0.258,-0.2579,-0.2579,-0.2565,-0.2565,-0.2565,0,0,0,0,0,0,0,0,0,0,0,0,0,-0.251,-0.2481,-0.256,-0.2562,-0.2562,-0.2593,-0.2593,-0.2593,-0.2581,-0.258,-0.2579,-0.2579,-0.2565,-0.2565,-0.2565,-0.2579,0,0,-0.2565,-0.2565,0,0,0,0,0,0,0,0,-0.2509,-0.2513,-0.2561,-0.2562,-0.2563,-0.2585,-0.2559,-0.2587,-0.2581,-0.257,-0.2579,-0.2578,-0.257,-0.2569,-0.2573,-0.2579,-0.2578,-0.2565,-0.2565,-0.2565,-0.2565,0,0,0,0,0,0,0,-0.2507,-0.2512,-0.257,-0.2562,-0.2563,-0.2558,-0.2561,-0.2564,-0.257,-0.2571,-0.2571,-0.258,-0.2569,-0.2573,-0.2573,-0.2578,-0.2565,-0.2565,-0.2565,-0.2565,-0.2624,-0.2626,0,0,0,0,0,0,-0.2511,-0.251,-0.2569,-0.2571,-0.2537,-0.256,-0.2564,-0.2576,-0.2571,-0.2571,-0.2581,-0.2579,-0.2573,-0.2572,-0.2572,-0.2622,-0.2565,-0.2565,-0.2565,-0.2623,-0.2624,-0.2626,0,0,0,0,0,0,-0.2509,-0.2516,-0.2568,-0.2543,-0.255,-0.2563,-0.2576,-0.2577,-0.2586,-0.2579,-0.2578,-0.2589,-0.2573,-0.2572,-0.2587,-0.262,-0.2565,-0.2565,-0.2621,-0.2623,-0.2625,-0.2701,0,0,0,0,0,0,-0.2506,-0.2515,-0.2522,-0.2544,-0.2552,-0.2597,-0.2577,-0.2578,-0.2593,-0.2592,-0.2587,-0.2584,-0.2572,-0.2587,-0.2587,-0.2619,-0.2565,-0.2619,-0.2622,-0.2625,-0.2697,-0.2706,-0.2713,0,0,0,0,0,-0.2503,-0.2516,-0.2522,-0.2529,-0.2562,-0.2598,-0.2602,-0.2606,-0.2595,-0.2608,-0.2604,-0.2585,-0.2605,-0.2589,-0.2588,-0.2621,-0.2618,-0.2621,-0.2624,-0.2693,-0.2704,-0.2713,0,0,0,0,0,0,-0.2481,-0.2517,-0.2524,-0.2546,-0.2576,-0.2598,-0.2606,-0.2613,-0.2621,-0.2615,-0.2602,-0.2601,-0.2627,-0.2614,-0.2596,-0.2647,-0.2609,-0.2613,-0.2662,-0.2672,-0.268,-0.2676,-0.2565,0,0,0,0,0,-0.2483,-0.25,-0.2538,-0.2555,-0.2571,-0.2591,-0.2604,-0.2614,-0.2626,-0.2629,-0.2628,-0.2629,-0.2642,-0.2647,-0.2651,-0.2678,-0.2656,-0.27,-0.2709,-0.2716,-0.2713,-0.2723,-0.2732,-0.2637,-0.2637,-0.2637,0,0,-0.2476,-0.25,-0.2508,-0.2552,-0.2569,-0.2608,-0.2596,-0.2624,-0.2657,-0.2626,-0.2658,-0.2656,-0.2655,-0.2687,-0.2698,-0.268,-0.273,-0.272,-0.2726,-0.272,-0.2727,-0.2736,-0.2744,-0.264,-0.2639,-0.2639,0,0,-0.2482,-0.2498,-0.252,-0.2554,-0.2596,-0.2616,-0.263,-0.2663,-0.2677,-0.2713,-0.2702,-0.2721,-0.2735,-0.2748,-0.2755,-0.2812,-0.2773,-0.2813,-0.2855,-0.2865,-0.2873,-0.2879,-0.2857,-0.286,-0.2819,-0.282,-0.282,0,-0.2473,-0.251,-0.2532,-0.2572,-0.2603,-0.2625,-0.2666,-0.2692,-0.2727,-0.2746,-0.2731,-0.2771,-0.2768,-0.2817,-0.2834,-0.2832,-0.2814,-0.2818,-0.2876,-0.2882,-0.2887,-0.2862,-0.2865,-0.2824,-0.2823,-0.2823,-0.2822,0,-0.2503,-0.2539,-0.2556,-0.2615,-0.2653,-0.2688,-0.2739,-0.2772,-0.2788,-0.2812,-0.2858,-0.2861,-0.2881,-0.2893,-0.2879,-0.2925,-0.2892,-0.2884,-0.2849,-0.2901,-0.2871,-0.2873,-0.2829,-0.2828,-0.2827,-0.2826,0,0,-0.246,-0.2558,-0.2561,-0.26,-0.2678,-0.271,-0.2778,-0.284,-0.2876,-0.291,-0.2953,-0.2986,-0.2978,-0.2984,-0.2978,-0.2989,-0.3009,-0.2951,-0.295,-0.2925,-0.3004,-0.2915,-0.2908,-0.301,-0.3011,-0.3012,-0.2966,0,-0.2472,-0.2548,-0.26,-0.2673,-0.2715,-0.2775,-0.2836,-0.2897,-0.2936,-0.2981,-0.3004,-0.3033,-0.3018,-0.3022,-0.3038,-0.3017,-0.3018,-0.302,-0.296,-0.2957,-0.287,-0.2909,-0.2698,-0.2634,-0.2967,-0.2967,-0.2968,0,-0.2477,-0.253,-0.2604,-0.2706,-0.273,-0.278,-0.2871,-0.2925,-0.3003,-0.3035,-0.3077,-0.3086,-0.3119,-0.3087,-0.3089,-0.3088,-0.3048,-0.3027,-0.3024,-0.2914,-0.2872,-0.2638,-0.2625,-0.297,-0.297,-0.297,-0.297,0,-0.242,-0.2527,-0.2583,-0.2619,-0.2741,-0.2783,-0.2837,-0.2929,-0.2975,-0.3052,-0.3085,-0.3133,-0.3141,-0.3128,-0.3086,-0.3087,-0.3063,-0.306,-0.2943,-0.2935,-0.2728,-0.27,-0.3049,-0.3049,-0.3049,-0.3049,-0.305,0,-0.2406,-0.2446,-0.2558,-0.2588,-0.2651,-0.2745,-0.2811,-0.2878,-0.2966,-0.301,-0.3088,-0.3114,-0.3149,-0.3142,-0.3101,-0.302,-0.3075,-0.2947,-0.2923,-0.2747,-0.2723,-0.2993,-0.2988,-0.3048,-0.3048,-0.3048,-0.3049,0,-0.2329,-0.241,-0.247,-0.259,-0.2625,-0.2656,-0.2775,-0.2815,-0.2919,-0.2976,-0.2998,-0.3096,-0.309,-0.31,-0.307,-0.302,-0.2962,-0.2912,-0.2688,-0.264,-0.2821,-0.282,-0.2789,-0.2785,-0.2782,-0.278,-0.2778,0,-0.2297,-0.2322,-0.2433,-0.246,-0.251,-0.2581,-0.2626,-0.2757,-0.2803,-0.2942,-0.295,-0.3001,-0.2995,-0.294,-0.2865,-0.2782,-0.2866,-0.2541,-0.2515,-0.2818,-0.2798,-0.2802,-0.2804,-0.2264,-0.2258,-0.2253,-0.2249,0,-0.2218,-0.2255,-0.2301,-0.2353,-0.24,-0.2461,-0.2536,-0.2573,-0.2715,-0.2768,-0.2819,-0.2829,-0.2814,-0.2646,-0.2566,-0.2488,-0.2547,-0.2438,-0.2808,-0.2372,-0.2322,-0.2304,-0.2323,-0.2205,-0.2209,-0.2213,-0.2215,-0.2217,-0.2135,-0.2138,-0.219,-0.2222,-0.2275,-0.2302,-0.2292,-0.2383,-0.2418,-0.2454,-0.2582,-0.2525,-0.2529,-0.2296,-0.2184,-0.2102,-0.227,-0.2169,-0.2184,-0.2205,-0.2162,-0.2111,-0.1944,-0.1947,-0.1949,-0.1951,-0.1953,0,-0.2015,-0.203,-0.2056,-0.2085,-0.2068,-0.215,-0.2194,-0.2149,-0.2118,-0.2191,-0.2199,-0.2,-0.1899,-0.191,-0.172,-0.1688,-0.1674,-0.1618,-0.16,-0.1644,-0.1684,-0.1616,-0.1251,-0.1249,-0.1247,-0.1246,0,0,-0.1953,-0.192,-0.1928,-0.1854,-0.1873,-0.1794,-0.1776,-0.1732,-0.174,-0.166,-0.1633,-0.1785,-0.185,-0.1547,-0.1479,-0.1337,-0.1475,-0.1271,-0.1833,-0.1855,-0.1892,-0.1997,-0.1941,0,0,0,0,0]},{"header":{"parameterUnit":"m.s-1","parameterCategory":2,"la1":30.2991,"la2":30.254,"lo1":-89.0895,"lo2":-89.0444,"dy":0.0017,"dx":0.0017,"nx":28,"ny":28,"refTime":"2024-02-08T09:00:00:Z","depth":"2","parameterNumber":3,"parameterNumberName":"V-component_of_CURRENTS"},"data":[0,0,0,0,0,0,0,0,0,0,0,0,0,0,0,0,0,0,0,0,0,0,0,0,0,0,0,0,0,0,0,0,0,0,0,0,0,0,0,0,0,0,0,0,0,0,0,0,0,0,0,0,0,0,0,0,0,0,-0.0218,-0.0217,0,-0.0142,-0.0141,-0.014,-0.0088,-0.0087,-0.0087,-0.0087,0.004,0.0043,0.0046,0,0,0,0,0,0,0,0,0,0,0,0,0,-0.0265,-0.0265,-0.0218,-0.0217,-0.0216,-0.0142,-0.0141,-0.0139,-0.0088,-0.0087,-0.0087,-0.0087,0.0039,0.0043,0.0047,0,0,0,0,0,0,0,0,0,0,0,0,0,-0.0222,-0.0265,-0.0218,-0.0182,-0.0178,-0.0142,-0.0141,-0.0139,-0.0088,-0.0087,-0.0087,-0.0086,0.0038,0.0042,0.0047,0.0067,0,0,0.0061,0.0063,0,0,0,0,0,0,0,0,-0.0224,-0.022,-0.0188,-0.0184,-0.018,-0.0124,-0.0111,-0.0068,-0.0088,-0.0121,-0.0087,-0.0086,-0.0011,-0.0002,0.0012,0.0073,0.0079,0.0062,0.0065,0.0067,0.0068,0,0,0,0,0,0,0,-0.0227,-0.0223,-0.0187,-0.0187,-0.0182,-0.0152,-0.0145,-0.0102,-0.0068,-0.0118,-0.0114,-0.0108,-0.0008,0.0007,0.0015,0.0081,0.0062,0.0066,0.0069,0.007,0.0175,0.0175,0,0,0,0,0,0,-0.0242,-0.0226,-0.0189,-0.0184,-0.0203,-0.0151,-0.0144,-0.0142,-0.0069,-0.0058,-0.0108,-0.0105,-0.0001,0.001,0.002,0.0051,0.0067,0.0071,0.0074,0.0176,0.0175,0.0175,0,0,0,0,0,0,-0.0244,-0.024,-0.0192,-0.0204,-0.0196,-0.0152,-0.0149,-0.0141,-0.0125,-0.0062,-0.005,-0.0101,-0.0,0.0013,0.0056,0.0056,0.0073,0.0077,0.0176,0.0175,0.0175,0.0111,0,0,0,0,0,0,-0.0245,-0.0241,-0.0246,-0.0205,-0.0196,-0.018,-0.0149,-0.014,-0.0122,-0.0118,-0.0052,-0.004,0.0001,0.0049,0.0061,0.0063,0.0081,0.0176,0.0176,0.0175,0.0113,0.0109,0.0105,0,0,0,0,0,-0.0247,-0.0259,-0.0247,-0.0242,-0.0203,-0.0181,-0.0173,-0.0139,-0.0122,-0.0122,-0.0074,-0.0042,0.0057,0.0052,0.0067,0.007,0.0176,0.0176,0.0175,0.0115,0.011,0.0105,0,0,0,0,0,0,-0.0281,-0.0254,-0.0239,-0.0241,-0.0217,-0.0173,-0.017,-0.0144,-0.0107,-0.0102,-0.004,-0.0025,0.0011,0.0049,0.0043,0.01,0.0121,0.0124,0.007,0.0066,0.0062,0.0044,0.0085,0,0,0,0,0,-0.0292,-0.0294,-0.026,-0.0262,-0.0254,-0.0212,-0.0199,-0.0177,-0.0138,-0.0121,-0.0074,-0.0023,0.0022,0.005,0.009,0.0125,0.0169,0.0136,0.0132,0.0128,0.0123,0.0194,0.0196,0.0175,0.0175,0.0175,0,0,-0.0305,-0.0291,-0.0291,-0.0269,-0.0248,-0.0246,-0.0203,-0.019,-0.0182,-0.0112,-0.0087,-0.0038,0.0026,0.0061,0.0081,0.0095,0.0156,0.0128,0.0125,0.0122,0.0194,0.0196,0.0198,0.0175,0.0175,0.0175,0,0,-0.0341,-0.0321,-0.0339,-0.0324,-0.0301,-0.0273,-0.0273,-0.0233,-0.0208,-0.0177,-0.0125,-0.0075,-0.0012,0.0038,0.0071,0.0072,0.0128,0.0082,0.0055,0.0124,0.0126,0.0128,0.018,0.0188,0.0086,0.0086,0.0086,0,-0.0359,-0.0377,-0.034,-0.0353,-0.0347,-0.0292,-0.0308,-0.0274,-0.0223,-0.02,-0.0181,-0.0075,-0.0022,0.0036,0.0035,0.0063,0.0104,0.0067,0.0118,0.0122,0.0125,0.0178,0.0187,0.0083,0.0083,0.0083,0.0084,0,-0.0408,-0.0422,-0.0431,-0.0429,-0.0414,-0.042,-0.0371,-0.035,-0.0311,-0.0268,-0.0209,-0.0129,-0.0065,-0.0038,-0.0,0.0053,0.0073,0.01,0.0127,0.0123,0.0179,0.019,0.0078,0.0079,0.008,0.0081,0,0,-0.0449,-0.0467,-0.0469,-0.0492,-0.0458,-0.0457,-0.0434,-0.0399,-0.0383,-0.0315,-0.0281,-0.0193,-0.014,-0.0099,-0.0035,0.0029,0.0091,0.0068,0.0073,0.0113,0.0231,0.026,0.0276,0.0127,0.0129,0.013,0.0257,0,-0.0502,-0.0559,-0.0539,-0.0582,-0.0608,-0.0551,-0.0533,-0.0486,-0.0431,-0.038,-0.0276,-0.0221,-0.0164,-0.0131,-0.0058,0.0056,0.0117,0.0053,0.0234,0.0239,0.0262,0.0289,0.0247,0.0358,0.0268,0.027,0.0271,0,-0.0555,-0.059,-0.0649,-0.0672,-0.0674,-0.0679,-0.0644,-0.0622,-0.0524,-0.0477,-0.0391,-0.0305,-0.0194,-0.015,0.0043,-0.0001,0.0101,0.019,0.0198,0.0255,0.029,0.035,0.0381,0.029,0.0288,0.0287,0.0286,0,-0.0617,-0.0665,-0.0721,-0.0728,-0.0734,-0.074,-0.0728,-0.0652,-0.0633,-0.0532,-0.05,-0.0354,-0.0275,-0.0125,0.0064,0.0054,0.0277,0.0291,0.0412,0.0415,0.0431,0.0432,0.0417,0.0417,0.0416,0.0416,0.0416,0,-0.0684,-0.0729,-0.0761,-0.0795,-0.0848,-0.0812,-0.083,-0.0792,-0.0722,-0.0693,-0.0557,-0.0497,-0.0265,-0.0105,0.0053,0.0274,0.0275,0.0414,0.0457,0.0406,0.0404,0.0385,0.0379,0.0421,0.042,0.0419,0.0418,0,-0.0744,-0.0764,-0.0841,-0.0874,-0.0885,-0.092,-0.092,-0.0924,-0.0845,-0.08,-0.0771,-0.0589,-0.0374,-0.014,0.0124,0.0261,0.0465,0.0537,0.0456,0.0487,0.0555,0.0545,0.0683,0.0685,0.0687,0.0689,0.069,0,-0.0783,-0.0829,-0.0909,-0.0957,-0.098,-0.1019,-0.1038,-0.0992,-0.0985,-0.0855,-0.0838,-0.0625,-0.0459,-0.0061,0.0224,0.0521,0.0523,0.064,0.0618,0.0558,0.0586,0.0573,0.056,0.0612,0.0612,0.0613,0.0613,0,-0.0856,-0.0883,-0.0947,-0.1048,-0.1102,-0.1156,-0.1177,-0.1188,-0.1107,-0.1044,-0.0919,-0.0774,-0.0381,-0.0045,0.0346,0.0503,0.0592,0.0659,0.0644,0.0545,0.05,0.0524,0.0513,0.0617,0.0617,0.0617,0.0616,0.0616,-0.0901,-0.0967,-0.1049,-0.1139,-0.1208,-0.127,-0.1303,-0.1293,-0.1267,-0.1141,-0.0993,-0.0745,-0.0402,0.0146,0.0428,0.0678,0.0663,0.0724,0.0718,0.0714,0.0677,0.0638,0.0773,0.0773,0.0774,0.0774,0.0774,0,-0.0957,-0.103,-0.113,-0.124,-0.1324,-0.1335,-0.1375,-0.1364,-0.1325,-0.1166,-0.1003,-0.0625,-0.0231,0.0121,0.0529,0.0772,0.0744,0.0799,0.0724,0.0717,0.0712,0.0673,0.077,0.0771,0.0772,0.0772,0,0,-0.099,-0.1098,-0.1154,-0.1307,-0.1379,-0.1454,-0.1471,-0.1423,-0.1312,-0.115,-0.0957,-0.0675,-0.0232,0.0061,0.0375,0.0592,0.0584,0.0598,0.0572,0.0439,0.0431,0.0637,0.0566,0,0,0,0,0]}],[{"header":{"parameterUnit":"m.s-1","parameterCategory":2,"la1":30.2991,"la2":30.254,"lo1":-89.0895,"lo2":-89.0444,"dy":0.0017,"dx":0.0017,"nx":28,"ny":28,"refTime":"2024-02-08T09:00:00:Z","depth":"4","parameterNumber":2,"parameterNumberName":"U-component_of_CURRENTS"},"data":[0,0,0,0,0,0,0,0,0,0,0,0,0,0,0,0,0,0,0,0,0,0,0,0,0,0,0,0,0,0,0,0,0,0,0,0,0,0,0,0,0,0,0,0,0,0,0,0,0,0,0,0,0,0,0,0,0,0,-0.1766,-0.1767,0,-0.1831,-0.1832,-0.1832,-0.1878,-0.1878,-0.1879,-0.1879,-0.1936,-0.1937,-0.1938,0,0,0,0,0,0,0,0,0,0,0,0,0,-0.1675,-0.1677,-0.1766,-0.1767,-0.1768,-0.1831,-0.1832,-0.1832,-0.1878,-0.1878,-0.1879,-0.188,-0.1936,-0.1937,-0.1938,0,0,0,0,0,0,0,0,0,0,0,0,0,-0.1723,-0.1677,-0.1766,-0.18,-0.1803,-0.1831,-0.1832,-0.1833,-0.1878,-0.1878,-0.1879,-0.188,-0.1935,-0.1937,-0.1938,-0.1932,0,0,-0.1943,-0.1944,0,0,0,0,0,0,0,0,-0.172,-0.1726,-0.1794,-0.1797,-0.1802,-0.1849,-0.1821,-0.1866,-0.1877,-0.1847,-0.1879,-0.188,-0.1907,-0.1911,-0.1919,-0.1934,-0.1937,-0.1943,-0.1944,-0.1945,-0.1945,0,0,0,0,0,0,0,-0.1717,-0.1724,-0.179,-0.1795,-0.18,-0.181,-0.1817,-0.1829,-0.187,-0.185,-0.1854,-0.1864,-0.1909,-0.1917,-0.192,-0.1938,-0.1943,-0.1944,-0.1945,-0.1946,-0.2044,-0.2046,0,0,0,0,0,0,-0.1712,-0.172,-0.1788,-0.1792,-0.1764,-0.1811,-0.1819,-0.1831,-0.187,-0.1878,-0.1863,-0.1866,-0.1914,-0.1918,-0.1922,-0.2009,-0.1945,-0.1946,-0.1947,-0.2043,-0.2045,-0.2047,0,0,0,0,0,0,-0.171,-0.1718,-0.1785,-0.1759,-0.1769,-0.1812,-0.1825,-0.1832,-0.1874,-0.1881,-0.1888,-0.1902,-0.1915,-0.192,-0.1968,-0.2008,-0.1947,-0.1948,-0.2041,-0.2043,-0.2046,-0.2123,0,0,0,0,0,0,-0.1707,-0.1717,-0.1738,-0.1759,-0.177,-0.1826,-0.1825,-0.1833,-0.1878,-0.1883,-0.1915,-0.192,-0.1916,-0.1966,-0.1969,-0.2009,-0.1949,-0.2039,-0.2042,-0.2045,-0.2118,-0.2128,-0.2136,0,0,0,0,0,-0.1704,-0.1724,-0.1739,-0.1748,-0.1793,-0.1827,-0.1834,-0.1865,-0.1879,-0.1905,-0.1931,-0.192,-0.1988,-0.1968,-0.1972,-0.2013,-0.2037,-0.2041,-0.2045,-0.2114,-0.2126,-0.2136,0,0,0,0,0,0,-0.1698,-0.1731,-0.1748,-0.1779,-0.1814,-0.1836,-0.1864,-0.1885,-0.1925,-0.1937,-0.1942,-0.1948,-0.2003,-0.1998,-0.1976,-0.2051,-0.2011,-0.2016,-0.2063,-0.2074,-0.2082,-0.207,-0.1951,0,0,0,0,0,-0.1705,-0.1731,-0.1764,-0.1793,-0.1812,-0.1845,-0.1868,-0.1892,-0.1922,-0.1942,-0.1967,-0.1992,-0.2016,-0.2038,-0.2053,-0.2096,-0.2074,-0.2125,-0.2134,-0.2141,-0.2135,-0.2142,-0.2151,-0.2059,-0.2059,-0.2059,0,0,-0.1711,-0.1734,-0.175,-0.1794,-0.1822,-0.1859,-0.1862,-0.1907,-0.1948,-0.194,-0.201,-0.2024,-0.2033,-0.2083,-0.2107,-0.2089,-0.2157,-0.2146,-0.2153,-0.2142,-0.2147,-0.2156,-0.2164,-0.2062,-0.2061,-0.2061,0,0,-0.1726,-0.1758,-0.1783,-0.1817,-0.1867,-0.1888,-0.191,-0.1956,-0.1991,-0.205,-0.2056,-0.2098,-0.214,-0.2155,-0.2166,-0.2233,-0.2201,-0.2244,-0.2285,-0.2294,-0.2301,-0.2307,-0.2293,-0.2297,-0.2252,-0.2253,-0.2253,0,-0.1736,-0.1769,-0.1798,-0.1833,-0.1867,-0.1906,-0.1947,-0.1986,-0.2047,-0.2077,-0.2086,-0.2158,-0.2172,-0.2222,-0.2248,-0.2253,-0.2241,-0.2245,-0.2305,-0.231,-0.2315,-0.2299,-0.2302,-0.2257,-0.2256,-0.2256,-0.2256,0,-0.1759,-0.1804,-0.1823,-0.1881,-0.1923,-0.1964,-0.2019,-0.2072,-0.2118,-0.2151,-0.2223,-0.2246,-0.2284,-0.2304,-0.2298,-0.2348,-0.2323,-0.2312,-0.2275,-0.2329,-0.2309,-0.2311,-0.2263,-0.2261,-0.226,-0.2259,0,0,-0.173,-0.1822,-0.1832,-0.1871,-0.1953,-0.1984,-0.2064,-0.2133,-0.2181,-0.2247,-0.2302,-0.2359,-0.237,-0.2381,-0.2388,-0.2402,-0.2432,-0.2376,-0.2375,-0.2357,-0.2436,-0.2279,-0.2266,-0.2434,-0.2435,-0.2435,-0.2409,0,-0.1742,-0.1809,-0.1859,-0.1936,-0.1974,-0.2045,-0.2112,-0.2184,-0.2244,-0.2307,-0.2348,-0.2398,-0.2401,-0.2424,-0.2443,-0.2434,-0.2441,-0.2439,-0.239,-0.2388,-0.2238,-0.2264,-0.2438,-0.241,-0.2411,-0.2411,-0.2411,0,-0.1738,-0.1787,-0.1862,-0.1962,-0.1987,-0.2047,-0.2152,-0.2212,-0.2306,-0.2355,-0.2416,-0.2442,-0.249,-0.2474,-0.2492,-0.2491,-0.2469,-0.2454,-0.2453,-0.2275,-0.2235,-0.2345,-0.2415,-0.2414,-0.2414,-0.2414,-0.2414,0,-0.1678,-0.1784,-0.1844,-0.188,-0.2001,-0.2059,-0.2124,-0.2228,-0.2278,-0.2378,-0.2419,-0.2482,-0.251,-0.251,-0.2496,-0.2498,-0.2487,-0.2485,-0.232,-0.2309,-0.2425,-0.2418,-0.2481,-0.2481,-0.2481,-0.2481,-0.2481,0,-0.1647,-0.1697,-0.1828,-0.1857,-0.1933,-0.2031,-0.2114,-0.219,-0.2288,-0.2329,-0.243,-0.2452,-0.252,-0.2525,-0.2504,-0.2408,-0.2496,-0.2316,-0.2289,-0.2458,-0.2456,-0.2426,-0.242,-0.248,-0.248,-0.248,-0.2481,0,-0.1563,-0.1652,-0.1723,-0.1859,-0.1906,-0.1955,-0.2091,-0.2134,-0.2251,-0.2305,-0.2335,-0.2435,-0.2435,-0.2472,-0.2462,-0.2393,-0.2333,-0.2276,-0.2444,-0.243,-0.2148,-0.2147,-0.2085,-0.208,-0.2075,-0.207,-0.2067,0,-0.1523,-0.1554,-0.1697,-0.1737,-0.1804,-0.1899,-0.1953,-0.2091,-0.2128,-0.2261,-0.2256,-0.2318,-0.2362,-0.2225,-0.2281,-0.2227,-0.2202,-0.2163,-0.2161,-0.2126,-0.2107,-0.2114,-0.2119,-0.2059,-0.2058,-0.2057,-0.2055,0,-0.1437,-0.1502,-0.1557,-0.1634,-0.1705,-0.177,-0.1858,-0.1872,-0.2007,-0.2139,-0.2121,-0.2119,-0.2113,-0.2104,-0.2079,-0.2042,-0.2187,-0.2111,-0.2121,-0.2119,-0.2093,-0.2081,-0.2092,-0.2038,-0.2041,-0.2042,-0.2043,0,-0.1368,-0.1381,-0.1455,-0.1506,-0.1586,-0.1604,-0.1678,-0.1717,-0.1772,-0.1929,-0.1908,-0.1982,-0.2077,-0.2005,-0.1976,-0.1934,-0.1907,-0.185,-0.1874,-0.1893,-0.1842,-0.1782,-0.1597,0,0,0,0,0,-0.1287,-0.1281,-0.1319,-0.1364,-0.1433,-0.1474,-0.159,-0.1667,-0.1805,-0.1739,-0.1823,-0.1808,-0.178,-0.1816,-0.1729,-0.188,-0.191,-0.1771,-0.1857,-0.1943,-0.1963,-0.1922,0,0,0,0,0,0,-0.1233,-0.1261,-0.1266,-0.1222,-0.1224,-0.1278,-0.1344,-0.1445,-0.1426,-0.1577,-0.1567,-0.1687,-0.1681,-0.1791,-0.1685,-0.1696,-0.1711,-0.1828,-0.1823,-0.1932,-0.195,-0.1966,-0.193,0,0,0,0,0]},{"header":{"parameterUnit":"m.s-1","parameterCategory":2,"la1":30.2991,"la2":30.254,"lo1":-89.0895,"lo2":-89.0444,"dy":0.0017,"dx":0.0017,"nx":28,"ny":28,"refTime":"2024-02-08T09:00:00:Z","depth":"4","parameterNumber":3,"parameterNumberName":"V-component_of_CURRENTS"},"data":[0,0,0,0,0,0,0,0,0,0,0,0,0,0,0,0,0,0,0,0,0,0,0,0,0,0,0,0,0,0,0,0,0,0,0,0,0,0,0,0,0,0,0,0,0,0,0,0,0,0,0,0,0,0,0,0,0,0,-0.0178,-0.0178,0,-0.013,-0.013,-0.0129,-0.0095,-0.0095,-0.0095,-0.0095,-0.0001,0.0001,0.0004,0,0,0,0,0,0,0,0,0,0,0,0,0,-0.0203,-0.0202,-0.0179,-0.0178,-0.0178,-0.013,-0.013,-0.0129,-0.0095,-0.0095,-0.0095,-0.0095,-0.0002,0.0001,0.0004,0,0,0,0,0,0,0,0,0,0,0,0,0,-0.0176,-0.0202,-0.0179,-0.0156,-0.0153,-0.0131,-0.013,-0.0129,-0.0095,-0.0095,-0.0095,-0.0094,-0.0003,0.0001,0.0004,0.0021,0,0,0.0015,0.0016,0,0,0,0,0,0,0,0,-0.0178,-0.0175,-0.016,-0.0157,-0.0155,-0.0119,-0.0104,-0.0077,-0.0095,-0.0116,-0.0095,-0.0094,-0.0037,-0.0031,-0.0022,0.0025,0.0029,0.0015,0.0017,0.0019,0.002,0,0,0,0,0,0,0,-0.018,-0.0177,-0.0158,-0.0159,-0.0156,-0.0135,-0.0131,-0.0098,-0.0077,-0.0114,-0.0112,-0.0108,-0.0035,-0.0025,-0.0019,0.003,0.0015,0.0018,0.002,0.0022,0.0097,0.0097,0,0,0,0,0,0,-0.019,-0.0179,-0.016,-0.0157,-0.0167,-0.0135,-0.013,-0.013,-0.0078,-0.0071,-0.0109,-0.0107,-0.0031,-0.0023,-0.0015,0.0001,0.0019,0.0022,0.0024,0.0097,0.0097,0.0097,0,0,0,0,0,0,-0.0191,-0.0189,-0.0162,-0.0167,-0.0163,-0.0135,-0.0135,-0.0129,-0.012,-0.0075,-0.0066,-0.0105,-0.0031,-0.002,0.001,0.0005,0.0024,0.0027,0.0097,0.0097,0.0097,0.0037,0,0,0,0,0,0,-0.0192,-0.019,-0.0195,-0.0168,-0.0163,-0.0157,-0.0135,-0.0129,-0.0119,-0.0116,-0.0069,-0.006,-0.003,0.0005,0.0014,0.001,0.003,0.0097,0.0097,0.0097,0.0039,0.0035,0.0031,0,0,0,0,0,-0.0193,-0.0203,-0.0196,-0.0194,-0.0171,-0.0158,-0.0153,-0.0131,-0.0119,-0.0121,-0.0086,-0.0062,0.001,0.0007,0.0018,0.0015,0.0097,0.0097,0.0097,0.0041,0.0036,0.0031,0,0,0,0,0,0,-0.0215,-0.02,-0.0191,-0.0196,-0.0182,-0.0153,-0.0153,-0.0136,-0.011,-0.0107,-0.0061,-0.0049,-0.0026,0.0004,0.0,0.0037,0.0057,0.0059,0.0011,0.0006,0.0003,-0.0012,0.0033,0,0,0,0,0,-0.0224,-0.0228,-0.0207,-0.0212,-0.0208,-0.0181,-0.0173,-0.0159,-0.0132,-0.0121,-0.0088,-0.005,-0.0019,0.0,0.003,0.0053,0.0087,0.0058,0.0054,0.0051,0.0047,0.0094,0.0093,0.0096,0.0096,0.0096,0,0,-0.0234,-0.0226,-0.0228,-0.0217,-0.0205,-0.0208,-0.0176,-0.017,-0.0169,-0.0114,-0.0102,-0.0064,-0.0017,0.0005,0.0018,0.003,0.0067,0.005,0.0047,0.0045,0.0093,0.0093,0.0093,0.0096,0.0096,0.0096,0,0,-0.0262,-0.025,-0.0266,-0.0259,-0.0247,-0.0231,-0.0232,-0.0206,-0.0191,-0.0173,-0.0134,-0.01,-0.0055,-0.002,0.0003,-0.0002,0.0042,0.0007,-0.002,0.0025,0.0025,0.0025,0.0063,0.0068,0.0008,0.0008,0.0008,0,-0.0276,-0.0294,-0.0269,-0.0282,-0.0283,-0.0245,-0.0263,-0.0242,-0.0208,-0.0196,-0.0179,-0.0108,-0.0067,-0.0033,-0.0034,-0.0012,0.0019,-0.0008,0.0019,0.002,0.0022,0.0061,0.0066,0.0005,0.0005,0.0005,0.0006,0,-0.0314,-0.033,-0.0339,-0.0346,-0.034,-0.0349,-0.032,-0.031,-0.0285,-0.0258,-0.0222,-0.0162,-0.012,-0.0099,-0.0066,-0.0036,-0.0016,0.0005,0.0028,0.0018,0.006,0.0067,0.0001,0.0002,0.0003,0.0003,0,0,-0.034,-0.0365,-0.0368,-0.0392,-0.0377,-0.0382,-0.0375,-0.036,-0.0358,-0.031,-0.0297,-0.0232,-0.0193,-0.0163,-0.0113,-0.0068,-0.0027,-0.0031,-0.0027,0.0001,0.0069,0.0071,0.0079,-0.0001,-0.0,0.0001,0.0092,0,-0.0381,-0.0433,-0.0425,-0.0471,-0.0496,-0.0464,-0.0461,-0.0437,-0.0404,-0.0378,-0.0303,-0.0271,-0.0218,-0.0197,-0.0143,-0.0053,-0.0011,-0.0054,0.008,0.0084,0.0082,0.0086,0.0004,0.0098,0.0099,0.0101,0.0101,0,-0.042,-0.0453,-0.051,-0.0545,-0.0552,-0.0567,-0.0562,-0.0555,-0.0497,-0.0468,-0.0413,-0.0351,-0.0272,-0.0231,-0.0086,-0.0116,-0.0034,0.0036,0.0042,0.0069,0.0099,0.0113,0.0115,0.0114,0.0113,0.0112,0.0111,0,-0.0459,-0.0512,-0.0566,-0.0577,-0.0601,-0.0619,-0.0623,-0.0584,-0.0581,-0.0523,-0.0506,-0.0404,-0.035,-0.0233,-0.0079,-0.0084,0.0082,0.0095,0.0171,0.0172,0.0169,0.0168,0.0185,0.0185,0.0185,0.0184,0.0184,0,-0.0502,-0.0548,-0.0596,-0.0627,-0.0686,-0.0674,-0.071,-0.0693,-0.0662,-0.0652,-0.0558,-0.0521,-0.0347,-0.0227,-0.0096,0.0064,0.0072,0.0166,0.0197,0.0142,0.0136,0.0174,0.0172,0.0188,0.0187,0.0186,0.0186,0,-0.0534,-0.0565,-0.0639,-0.069,-0.0711,-0.075,-0.0784,-0.0799,-0.0759,-0.0742,-0.0725,-0.0601,-0.0441,-0.0263,-0.0059,0.0038,0.0193,0.0245,0.0172,0.0198,0.0254,0.0248,0.0328,0.0329,0.033,0.033,0.0331,0,-0.0555,-0.0596,-0.069,-0.074,-0.0772,-0.0826,-0.0858,-0.0849,-0.0855,-0.0784,-0.0774,-0.063,-0.0523,-0.0234,-0.0055,0.0193,0.0226,0.0296,0.0273,0.0247,0.027,0.0262,0.0255,0.0332,0.0332,0.0332,0.0332,0,-0.0592,-0.063,-0.0689,-0.0793,-0.0857,-0.092,-0.096,-0.0969,-0.0934,-0.0907,-0.0795,-0.0638,-0.0458,-0.0236,-0.0036,0.0138,0.0246,0.0304,0.0303,0.0282,0.0253,0.0273,0.0265,0.0335,0.0335,0.0334,0.0334,0,-0.0616,-0.0667,-0.0749,-0.0834,-0.0921,-0.0979,-0.1,-0.0987,-0.098,-0.0886,-0.085,-0.0645,-0.0523,-0.0264,-0.0082,0.0094,0.0127,0.0169,0.0176,0.0175,0.0105,0.0044,0.0087,0,0,0,0,0,-0.0632,-0.0692,-0.0781,-0.0876,-0.0961,-0.1006,-0.1049,-0.105,-0.1014,-0.094,-0.0887,-0.071,-0.0427,-0.0311,-0.0133,-0.0087,0.0143,0.0123,0.0191,0.0349,0.0346,0.0289,0,0,0,0,0,0,-0.0647,-0.0732,-0.0781,-0.0887,-0.0951,-0.1036,-0.1064,-0.1045,-0.099,-0.0928,-0.0777,-0.0681,-0.0409,-0.0521,-0.0132,-0.008,-0.0018,0.026,0.0263,0.035,0.0348,0.0345,0.0286,0,0,0,0,0]}]]